EW8215 Weather Reports


Display with metric or nautical units.
time (UTC)temp
F
wind
direction
speed
MPH
gust
MPH
rain 1hr
in
rain 24hr
in
rain mn
in
humidity
%
barometer
mb
20260510083756 70 162 2.0 3.0 0.00 0.00 0.00 90 1010.5
20260510083254 70 166 2.0 3.0 0.00 0.00 0.00 90 1010.7
20260510082749 70 167 3.0 3.0 0.00 0.00 0.00 90 1010.9
20260510082246 70 166 2.0 2.0 0.00 0.00 0.00 89 1010.9
20260510081744 70 163 3.0 3.0 0.00 0.00 0.00 89 1010.9
20260510081241 70 163 2.0 3.0 0.00 0.00 0.00 89 1011.1
20260510080736 70 156 2.0 3.0 0.00 0.00 0.00 89 1011.2
20260510080232 70 151 0.0 0.0 0.00 0.00 0.00 89 1011.2
20260510075729 70 150 0.0 0.0 0.00 0.00 0.00 88 1011.2
20260510075227 70 160 2.0 2.0 0.00 0.00 0.00 88 1011.3
20260510074724 70 151 2.0 3.0 0.00 0.00 0.00 87 1011.4
20260510074220 70 166 3.0 5.0 0.00 0.00 0.00 87 1011.2
20260510073717 71 161 1.0 2.0 0.00 0.00 0.00 87 1011.5
20260510073212 71 146 2.0 3.0 0.00 0.00 0.00 86 1011.5
20260510072708 71 151 6.0 7.0 0.00 0.00 0.00 85 1011.3
20260510072205 71 129 2.0 2.0 0.00 0.00 0.00 85 1011.3
20260510071702 71 144 7.0 9.0 0.00 0.00 0.00 84 1011.4
20260510071159 72 143 2.0 2.0 0.00 0.00 0.00 84 1011.3
20260510070656 72 141 5.0 7.0 0.00 0.00 0.00 83 1011.3
20260510070154 71 153 2.0 2.0 0.00 0.00 0.00 83 1011.2
20260510065649 71 141 3.0 3.0 0.00 0.00 0.00 83 1011.1
20260510065145 71 118 2.0 2.0 0.00 0.00 0.00 82 1011.3
20260510064642 71 143 3.0 3.0 0.00 0.00 0.00 82 1011.3
20260510064139 71 144 4.0 5.0 0.00 0.00 0.00 82 1011.4
20260510063636 71 142 2.0 2.0 0.00 0.00 0.00 81 1011.4
20260510063132 71 147 0.0 0.0 0.00 0.00 0.00 81 1011.4
20260510062628 71 126 4.0 5.0 0.00 0.00 0.00 82 1011.5
20260510062124 71 108 4.0 5.0 0.00 0.00 0.00 82 1011.6
20260510061620 70 146 3.0 5.0 0.00 0.00 0.00 84 1011.3
20260510061118 69 148 4.0 7.0 0.00 0.00 0.00 86 1011.3
20260510060613 69 131 3.0 3.0 0.00 0.00 0.00 88 1011.3
20260510060110 68 124 4.0 5.0 0.00 0.00 0.00 89 1011.2
20260510055606 68 135 3.0 3.0 0.00 0.00 0.00 90 1011.4
20260510055104 68 121 2.0 3.0 0.00 0.00 0.00 90 1011.1
20260510054600 68 131 4.0 7.0 0.00 0.00 0.00 90 1011.2
20260510054055 68 127 3.0 3.0 0.00 0.00 0.00 90 1011.2
20260510053549 69 132 3.0 3.0 0.00 0.00 0.00 89 1010.9
20260510053046 69 137 2.0 2.0 0.00 0.00 0.00 89 1011.0
20260510052542 69 137 0.0 0.0 0.00 0.00 0.00 89 1011.1
20260510052038 69 140 0.0 0.0 0.00 0.00 0.00 89 1011.0
20260510051534 69 142 2.0 2.0 0.00 0.00 0.00 88 1011.2
20260510051031 69 136 2.0 2.0 0.00 0.00 0.00 88 1011.1
20260510050528 69 135 3.0 3.0 0.00 0.00 0.00 88 1011.1
20260510050025 70 140 2.0 2.0 0.00 0.00 0.00 88 1011.3
20260510045522 70 136 3.0 3.0 0.00 0.00 0.00 87 1011.1
20260510045018 70 135 3.0 3.0 0.00 0.00 0.00 87 1011.3
20260510044515 70 143 2.0 3.0 0.00 0.00 0.00 86 1011.4
20260510044014 70 143 2.0 2.0 0.00 0.00 0.00 85 1011.4
20260510043513 71 137 2.0 3.0 0.00 0.00 0.00 85 1011.3
20260510043009 71 138 2.0 2.0 0.00 0.00 0.00 84 1011.5
20260510042503 72 136 2.0 2.0 0.00 0.00 0.00 83 1011.5
20260510041958 72 141 2.0 2.0 0.00 0.00 0.00 82 1011.3
20260510041455 72 140 2.0 2.0 0.00 0.00 0.00 81 1011.4
20260510040954 72 143 2.0 3.0 0.00 0.00 0.00 82 1011.4
20260510040450 72 140 2.0 2.0 0.00 0.00 0.00 82 1011.4
20260510035946 72 145 2.0 2.0 0.00 0.00 0.00 83 1011.3
20260510035442 72 125 3.0 3.0 0.00 0.00 0.00 83 1011.4
20260510034942 73 135 2.0 3.0 0.00 0.00 0.00 83 1011.4
20260510034441 73 139 2.0 2.0 0.00 0.00 0.00 82 1011.5
20260510033937 73 146 2.0 2.0 0.00 0.00 0.00 81 1011.2
20260510033433 73 131 2.0 2.0 0.00 0.00 0.00 82 1011.4
20260510032931 73 142 1.0 2.0 0.00 0.00 0.00 82 1011.2
20260510032428 74 137 2.0 2.0 0.00 0.00 0.00 82 1011.1
20260510031928 74 130 2.0 3.0 0.00 0.00 0.00 82 1011.1
20260510031424 74 145 2.0 2.0 0.00 0.00 0.00 82 1010.9
20260510030920 75 141 2.0 2.0 0.00 0.00 0.00 83 1011.1
20260510030415 75 142 0.0 0.0 0.00 0.00 0.00 83 1010.9
20260510025913 75 146 2.0 3.0 0.00 0.00 0.00 84 1010.7
20260510025410 75 151 2.0 2.0 0.00 0.00 0.00 83 1010.7
20260510024907 76 146 1.0 2.0 0.00 0.00 0.00 83 1010.5
20260510024403 77 143 2.0 2.0 0.00 0.00 0.00 81 1010.4
20260510023900 77 153 2.0 3.0 0.00 0.00 0.00 79 1010.2
20260510023356 78 140 1.0 2.0 0.00 0.00 0.00 78 1010.2
20260510022854 78 134 0.0 2.0 0.00 0.00 0.00 78 1010.0
20260510022353 78 152 1.0 3.0 0.00 0.00 0.00 78 1010.1
20260510021852 79 155 4.0 5.0 0.00 0.00 0.00 78 1010.2
20260510021350 79 139 2.0 3.0 0.00 0.00 0.00 78 1009.9
20260510020847 79 156 0.0 0.0 0.00 0.00 0.00 79 1009.8
20260510020347 79 157 1.0 2.0 0.00 0.00 0.00 78 1009.7
20260510015842 79 97 4.0 9.0 0.00 0.00 0.00 79 1009.6
20260510015339 79 137 2.0 2.0 0.00 0.00 0.00 80 1009.6
20260510014834 80 140 0.0 0.0 0.00 0.00 0.00 77 1009.5
20260510014331 81 152 0.0 0.0 0.00 0.00 0.00 76 1009.3
20260510013827 81 151 0.0 0.0 0.00 0.00 0.00 75 1009.4
20260510013323 81 156 0.0 0.0 0.00 0.00 0.00 74 1009.4
20260510012818 82 152 0.0 0.0 0.00 0.00 0.00 74 1009.3
20260510012318 82 153 0.0 0.0 0.00 0.00 0.00 73 1009.3
20260510011813 82 159 0.0 0.0 0.00 0.00 0.00 72 1009.2
20260510011309 82 159 0.0 0.0 0.00 0.00 0.00 72 1009.2
20260510010806 83 159 0.0 0.0 0.00 0.00 0.00 71 1009.2
20260510010303 84 159 0.0 0.0 0.00 0.00 0.00 69 1009.2
20260510005759 84 159 0.0 0.0 0.00 0.00 0.00 68 1009.1
20260510005255 84 158 0.0 0.0 0.00 0.00 0.00 67 1009.1
20260510004754 85 158 0.0 0.0 0.00 0.00 0.00 65 1009.0
20260510004251 85 159 0.0 0.0 0.00 0.00 0.00 64 1008.9
20260510003748 85 158 0.0 0.0 0.00 0.00 0.00 65 1009.2
20260510003245 86 158 0.0 0.0 0.00 0.00 0.00 64 1009.0
20260510002743 86 158 0.0 0.0 0.00 0.00 0.00 63 1009.0
20260510002241 86 158 0.0 0.0 0.00 0.00 0.00 64 1009.0
20260510001737 87 158 0.0 0.0 0.00 0.00 0.00 63 1008.8
20260510001236 87 158 0.0 0.0 0.00 0.00 0.00 60 1008.9
20260510000732 87 150 1.0 2.0 0.00 0.00 0.00 60 1008.9
20260510000229 87 157 0.0 2.0 0.00 0.00 0.00 60 1008.7
20260509235726 87 152 0.0 0.0 0.00 0.00 0.00 57 1008.8
20260509235222 88 149 0.0 0.0 0.00 0.00 0.00 58 1008.8
20260509234718 88 148 0.0 0.0 0.00 0.00 0.00 57 1008.7
20260509234215 88 141 0.0 0.0 0.00 0.00 0.00 55 1008.6
20260509233714 88 149 0.0 0.0 0.00 0.00 0.00 55 1008.6
20260509233211 89 157 2.0 2.0 0.00 0.00 0.00 56 1008.5
20260509232707 90 170 0.0 0.0 0.00 0.00 0.00 53 1008.6
20260509232204 91 166 0.0 0.0 0.00 0.00 0.00 54 1008.4
20260509231700 90 164 0.0 2.0 0.00 0.00 0.00 54 1008.5
20260509231158 90 168 0.0 0.0 0.00 0.00 0.00 57 1008.3
20260509230655 89 173 0.0 0.0 0.00 0.00 0.00 53 1008.6
20260509230151 90 149 2.0 3.0 0.00 0.00 0.00 54 1008.6
20260509225647 91 166 0.0 0.0 0.00 0.00 0.00 56 1008.4
20260509225143 90 158 0.0 2.0 0.00 0.00 0.00 54 1008.3
20260509224638 90 155 0.0 0.0 0.00 0.00 0.00 52 1008.6
20260509224135 89 100 3.0 3.0 0.00 0.00 0.00 53 1008.3
20260509223632 90 139 2.0 3.0 0.00 0.00 0.00 54 1008.4
20260509223130 90 214 3.0 5.0 0.00 0.00 0.00 54 1008.2
20260509222627 90 181 2.0 2.0 0.00 0.00 0.00 53 1008.3
20260509222122 89 166 0.0 2.0 0.00 0.00 0.00 56 1008.2
20260509221618 90 258 2.0 5.0 0.00 0.00 0.00 56 1008.4
20260509221114 90 210 3.0 3.0 0.00 0.00 0.00 55 1008.2
20260509220610 90 173 1.0 2.0 0.00 0.00 0.00 58 1008.1
20260509220107 90 194 2.0 3.0 0.00 0.00 0.00 56 1008.3
20260509215602 90 73 1.0 3.0 0.00 0.00 0.00 54 1008.3
20260509215100 89 199 2.0 3.0 0.00 0.00 0.00 59 1008.3
20260509214557 90 200 4.0 5.0 0.00 0.00 0.00 55 1008.6
20260509214053 90 220 5.0 5.0 0.00 0.00 0.00 57 1008.4
20260509213549 89 163 1.0 2.0 0.00 0.00 0.00 59 1008.6
20260509213046 89 211 3.0 5.0 0.00 0.00 0.00 60 1008.6
20260509212543 89 184 3.0 5.0 0.00 0.00 0.00 60 1008.8
20260509212040 89 185 2.0 2.0 0.00 0.00 0.00 62 1008.8
20260509211536 90 169 2.0 3.0 0.00 0.00 0.00 61 1008.7
20260509211033 89 182 4.0 5.0 0.00 0.00 0.00 60 1008.8
20260509210530 90 137 2.0 3.0 0.00 0.00 0.00 59 1008.9
20260509210026 90 175 3.0 3.0 0.00 0.00 0.00 60 1009.0
20260509205520 89 158 0.0 0.0 0.00 0.00 0.00 59 1009.1
20260509205016 89 178 3.0 5.0 0.00 0.00 0.00 61 1009.2
20260509204512 89 183 3.0 5.0 0.00 0.00 0.00 58 1009.3
20260509204009 89 147 1.0 2.0 0.00 0.00 0.00 59 1009.1
20260509203505 90 164 2.0 3.0 0.00 0.00 0.00 61 1009.2
20260509203004 90 175 3.0 5.0 0.00 0.00 0.00 58 1009.4
20260509202458 89 153 0.0 2.0 0.00 0.00 0.00 58 1009.5
20260509201954 87 258 4.0 5.0 0.00 0.00 0.00 59 1009.5
20260509201454 88 141 2.0 3.0 0.00 0.00 0.00 62 1009.8
20260509200951 88 20 6.0 7.0 0.00 0.00 0.00 63 1009.8
20260509200446 89 237 6.0 9.0 0.00 0.00 0.00 62 1010.0
20260509195943 87 160 0.0 2.0 0.00 0.00 0.00 61 1010.0
20260509195439 88 333 3.0 5.0 0.00 0.00 0.00 66 1010.0
20260509194938 88 124 2.0 3.0 0.00 0.00 0.00 62 1010.0
20260509194434 88 340 6.0 7.0 0.00 0.00 0.00 60 1009.9
20260509193931 87 153 0.0 0.0 0.00 0.00 0.00 64 1009.9
20260509193430 87 171 0.0 2.0 0.00 0.00 0.00 63 1010.1
20260509192927 87 3 6.0 7.0 0.00 0.00 0.00 64 1009.7
20260509192423 88 355 6.0 9.0 0.00 0.00 0.00 67 1010.0
20260509191918 88 123 4.0 5.0 0.00 0.00 0.00 64 1010.0
20260509191409 88 156 1.0 2.0 0.00 0.00 0.00 63 1010.3
20260509190905 86 163 1.0 2.0 0.00 0.00 0.00 65 1010.4
20260509190403 86 187 3.0 3.0 0.00 0.00 0.00 65 1010.3
20260509185900 86 117 2.0 3.0 0.00 0.00 0.00 69 1010.4
20260509185356 85 121 1.0 2.0 0.00 0.00 0.00 70 1010.7
20260509184853 86 86 3.0 3.0 0.00 0.00 0.00 70 1010.8
20260509184350 87 94 2.0 3.0 0.00 0.00 0.00 69 1010.7
20260509183848 87 136 2.0 2.0 0.00 0.00 0.00 67 1010.9
20260509183342 87 176 2.0 2.0 0.00 0.00 0.00 67 1010.8
20260509182838 87 186 2.0 3.0 0.00 0.00 0.00 68 1010.9
20260509182336 86 192 3.0 3.0 0.00 0.00 0.00 70 1010.9
20260509181833 86 185 4.0 5.0 0.00 0.00 0.00 69 1011.0
20260509181330 87 167 2.0 2.0 0.00 0.00 0.00 69 1010.9
20260509180827 86 169 0.0 0.0 0.00 0.00 0.00 68 1011.0
20260509180323 85 146 3.0 3.0 0.00 0.00 0.00 69 1011.2
20260509175820 84 160 2.0 3.0 0.00 0.00 0.00 73 1011.1
20260509175316 86 348 3.0 3.0 0.00 0.00 0.00 70 1011.2
20260509174812 85 180 2.0 3.0 0.00 0.00 0.00 69 1011.3
20260509174308 85 135 1.0 2.0 0.00 0.00 0.00 69 1011.3
20260509173804 85 164 1.0 2.0 0.00 0.00 0.00 72 1011.3
20260509173300 84 144 0.0 0.0 0.00 0.00 0.00 74 1011.3
20260509172756 84 186 3.0 3.0 0.00 0.00 0.00 73 1011.4
20260509172253 83 166 3.0 3.0 0.00 0.00 0.00 73 1011.5
20260509171749 82 134 2.0 3.0 0.00 0.00 0.00 78 1011.4
20260509171245 82 142 0.0 2.0 0.00 0.00 0.00 77 1011.6
20260509170742 83 154 2.0 2.0 0.00 0.00 0.00 76 1011.6
20260509170238 85 4 4.0 5.0 0.00 0.00 0.00 72 1011.8
20260509165736 85 117 1.0 3.0 0.00 0.00 0.00 72 1011.7
20260509165232 84 157 2.0 2.0 0.00 0.00 0.00 75 1011.7
20260509164728 83 164 3.0 5.0 0.00 0.00 0.00 77 1011.7
20260509164224 82 162 4.0 5.0 0.00 0.00 0.00 79 1011.7
20260509163721 81 162 2.0 3.0 0.00 0.00 0.00 80 1011.7
20260509163217 80 165 3.0 5.0 0.00 0.00 0.00 83 1012.0
20260509162715 80 174 3.0 3.0 0.00 0.00 0.00 81 1012.1
20260509162210 80 151 0.0 0.0 0.00 0.00 0.00 81 1011.9
20260509161706 80 148 0.0 0.0 0.00 0.00 0.00 80 1012.0
20260509161203 80 300 2.0 3.0 0.00 0.00 0.00 81 1012.0
20260509160658 80 152 2.0 3.0 0.00 0.00 0.00 81 1012.3
20260509160154 80 160 0.0 0.0 0.00 0.00 0.00 81 1012.1
20260509155650 80 128 1.0 2.0 0.00 0.00 0.00 83 1012.1
20260509155146 81 140 0.0 0.0 0.00 0.00 0.00 80 1011.7
20260509154642 78 163 1.0 2.0 0.00 0.00 0.00 85 1012.0
20260509154139 78 131 0.0 0.0 0.00 0.00 0.00 86 1011.8
20260509153636 78 137 1.0 2.0 0.00 0.00 0.00 87 1011.9
20260509153133 78 148 0.0 0.0 0.00 0.00 0.00 86 1011.8
20260509152628 78 130 0.0 2.0 0.00 0.00 0.00 86 1011.8
20260509152126 77 164 2.0 3.0 0.00 0.00 0.00 88 1011.9
20260509151622 78 132 2.0 2.0 0.00 0.00 0.00 86 1011.6
20260509151120 77 148 0.0 0.0 0.00 0.00 0.00 87 1011.6
20260509150618 77 168 0.0 0.0 0.00 0.00 0.00 88 1011.7
20260509150116 77 152 0.0 2.0 0.00 0.00 0.00 89 1011.6
20260509145611 77 341 4.0 5.0 0.00 0.00 0.00 88 1011.7
20260509145106 78 309 2.0 5.0 0.00 0.00 0.00 88 1011.4
20260509144603 78 134 2.0 3.0 0.00 0.00 0.00 88 1011.4
20260509144100 77 186 2.0 3.0 0.00 0.00 0.00 89 1011.3
20260509143557 77 120 3.0 3.0 0.00 0.00 0.00 89 1011.2
20260509143055 76 212 5.0 7.0 0.00 0.00 0.00 90 1010.8
20260509142550 75 183 2.0 3.0 0.00 0.00 0.00 92 1010.7
20260509142046 75 6 3.0 3.0 0.00 0.00 0.00 93 1010.9
20260509141543 75 316 3.0 5.0 0.00 0.00 0.00 93 1011.0
20260509141039 75 335 7.0 9.0 0.00 0.00 0.00 93 1010.9
20260509140536 75 249 4.0 5.0 0.00 0.00 0.00 94 1010.3
20260509140034 75 153 1.0 2.0 0.00 0.00 0.00 95 1010.1
20260509135531 74 205 6.0 9.0 0.00 0.00 0.00 95 1010.0
20260509135029 74 213 2.0 7.0 0.00 0.00 0.00 97 1010.0
20260509134526 73 203 3.0 5.0 0.00 0.00 0.00 98 1010.3
20260509134023 73 202 5.0 7.0 0.00 0.00 0.00 98 1010.2
20260509133520 73 178 5.0 7.0 0.00 0.00 0.00 98 1010.1
20260509133018 73 199 3.0 5.0 0.00 0.00 0.00 98 1009.9
20260509132516 73 190 2.0 3.0 0.00 0.00 0.00 98 1010.0
20260509132014 72 143 4.0 9.0 0.00 0.00 0.00 99 1009.6
20260509131509 72 146 6.0 9.0 0.00 0.00 0.00 99 1009.9
20260509131006 72 186 3.0 5.0 0.00 0.00 0.00 99 1009.9
20260509130502 71 171 2.0 2.0 0.00 0.00 0.00 99 1009.7
20260509125959 71 172 0.0 2.0 0.00 0.00 0.00 99 1010.0
20260509125455 71 190 0.0 0.0 0.00 0.00 0.00 99 1009.9
20260509124951 71 176 2.0 2.0 0.00 0.00 0.00 99 1010.1
20260509124449 71 155 0.0 0.0 0.00 0.00 0.00 99 1010.1
20260509123946 71 167 0.0 0.0 0.00 0.00 0.00 99 1010.1
20260509123443 71 164 0.0 0.0 0.00 0.00 0.00 99 1010.2
20260509122939 71 163 0.0 0.0 0.00 0.00 0.00 99 1010.3
20260509122436 70 164 0.0 0.0 0.00 0.00 0.00 99 1010.2
20260509121933 70 78 3.0 3.0 0.00 0.00 0.00 99 1010.3
20260509121430 70 157 0.0 0.0 0.00 0.00 0.00 99 1010.3
20260509120928 70 150 0.0 0.0 0.00 0.00 0.00 99 1010.4
20260509120425 70 159 0.0 0.0 0.00 0.00 0.00 99 1010.3
20260509115923 71 153 0.0 0.0 0.00 0.00 0.00 99 1010.3
20260509115420 71 155 0.0 0.0 0.00 0.00 0.00 99 1010.4
20260509114918 71 156 0.0 0.0 0.00 0.00 0.00 99 1010.9
20260509114416 71 155 0.0 0.0 0.00 0.00 0.00 99 1010.8
20260509113916 71 159 1.0 2.0 0.00 0.00 0.00 99 1011.0
20260509113413 71 154 0.0 0.0 0.00 0.00 0.00 99 1011.1
20260509112909 71 154 0.0 0.0 0.00 0.00 0.00 99 1011.0
20260509112406 71 155 0.0 0.0 0.00 0.00 0.00 99 1011.4
20260509111903 71 129 1.0 2.0 0.00 0.00 0.00 99 1011.3
20260509111400 71 167 1.0 3.0 0.00 0.00 0.00 99 1011.2
20260509110858 71 171 4.0 5.0 0.00 0.00 0.00 99 1011.3
20260509110353 71 171 2.0 3.0 0.00 0.00 0.00 99 1011.4
20260509105852 71 165 0.0 0.0 0.00 0.00 0.00 98 1011.7
20260509105350 71 165 0.0 0.0 0.00 0.00 0.00 98 1011.8
20260509104847 71 149 0.0 0.0 0.00 0.00 0.00 98 1011.6
20260509104343 71 146 0.0 0.0 0.00 0.00 0.00 98 1011.7
20260509103841 71 159 0.0 0.0 0.00 0.00 0.00 98 1011.7
20260509103338 71 161 0.0 0.0 0.00 0.00 0.00 98 1011.8
20260509102837 71 162 0.0 0.0 0.00 0.00 0.00 98 1011.8
20260509102333 71 158 0.0 0.0 0.00 0.00 0.00 98 1011.8
20260509101829 71 141 0.0 0.0 0.00 0.00 0.00 98 1011.9
20260509101326 71 146 1.0 2.0 0.00 0.00 0.00 98 1011.9
20260509100824 71 141 1.0 2.0 0.00 0.00 0.00 98 1011.8
20260509100320 71 174 0.0 0.0 0.00 0.00 0.00 98 1011.8
20260509095817 71 123 0.0 0.0 0.00 0.00 0.00 98 1011.9
20260509095314 71 157 2.0 2.0 0.00 0.00 0.00 98 1011.4
20260509094811 71 146 0.0 0.0 0.00 0.00 0.00 98 1011.3
20260509094308 71 145 0.0 0.0 0.00 0.00 0.00 98 1011.0
20260509093806 71 157 0.0 0.0 0.00 0.00 0.00 98 1011.1
20260509093303 71 156 0.0 0.0 0.00 0.00 0.00 98 1011.0
20260509092801 71 154 0.0 2.0 0.00 0.00 0.00 98 1011.3
20260509092259 71 208 2.0 3.0 0.00 0.00 0.00 98 1011.3
20260509091757 71 143 0.0 0.0 0.00 0.00 0.00 98 1011.5
20260509091253 71 143 0.0 0.0 0.00 0.00 0.00 98 1011.4
20260509090750 71 146 0.0 0.0 0.00 0.00 0.00 98 1011.3
20260509090247 71 139 0.0 0.0 0.00 0.00 0.00 98 1011.0
20260509085745 71 126 0.0 0.0 0.00 0.00 0.00 97 1010.9
20260509085242 71 153 0.0 0.0 0.00 0.00 0.00 97 1011.0
20260509084738 71 155 0.0 0.0 0.00 0.00 0.00 97 1010.9
20260509084235 71 157 0.0 0.0 0.00 0.00 0.00 97 1010.9